Weather History for KCBE - December, 2012

Change the Weather History Date:

Thursday, December 6, 2012

  Actual Average (KMRB) Record (KMRB)
Temperature  
Mean Temperature 32 °F 37 °F  
Max Temperature 42 °F 46 °F 78 °F (1998)
Min Temperature 23 °F 28 °F 6 °F (2007)
Degree Days  
Heating Degree Days 32 28  
Month to date heating degree days 164  
Since 1 July heating degree days 1234  
Cooling Degree Days 0 0  
Month to date cooling degree days 0  
Year to date cooling degree days 895  
Moisture  
Dew Point 26 °F    
Average Humidity 78    
Maximum Humidity 100    
Minimum Humidity 53    
Precipitation  
Precipitation 0.00 in 0.10 in 2.23 in (2013)
Month to date precipitation 0.63  
Year to date precipitation 36.62  
Sea Level Pressure  
Sea Level Pressure 30.31 in    
Wind  
Wind Speed 1 mph (West)    
Max Wind Speed 5 mph    
Max Gust Speed -    
Visibility 10 miles    
Events      
T = Trace of Precipitation, MM = Missing Value Source: NWS Daily Summary

Daily Weather History Graph

Daily Weather History Graph

Search for Another Location

Airport or City:

Trip Planner

Search our weather history database for the weather conditions in past years. The results will help you decide how hot, cold, wet, or windy it might be!

Date:

Astronomy

Dec. 06, 2012 Rise Set
Actual Time 7:21 AM EST 4:50 PM EST
Civil Twilight 6:51 AM EST 5:20 PM EST
Nautical Twilight 6:18 AM EST 5:54 PM EST
Astronomical Twilight 5:45 AM EST 6:27 PM EST
Moon No Moon Rise 12:14 PM EST (12/6)
Length of Visible Light 10h 29m
Length of Day
9h 28m
Waning Gibbous, 49% of the Moon is Illuminated
Dec 6
Waning Gibbous
Dec 13
New
Dec 20
First Quarter
Dec 28
Full
Jan 4
Last Quarter

Hourly Weather History & Observations

Time (EST) Temp. Windchill Dew Point Humidity Pressure Visibility Wind Dir Wind Speed Gust Speed Precip Events Conditions
12:07 AM 32.0 °F - 23.0 °F 69% 30.36 in 10.0 mi Calm Calm - N/A   Clear
12:29 AM 32.0 °F - 23.0 °F 69% 30.36 in 10.0 mi Calm Calm - N/A   Clear
12:50 AM 32.0 °F - 24.8 °F 75% 30.36 in 10.0 mi Calm Calm - N/A   Clear
1:11 AM 30.2 °F - 23.0 °F 75% 30.36 in 10.0 mi Calm Calm - N/A   Clear
1:33 AM 30.2 °F - 23.0 °F 75% 30.36 in 10.0 mi Calm Calm - N/A   Clear
1:54 AM 30.2 °F - 26.6 °F 86% 30.36 in 10.0 mi Calm Calm - N/A   Clear
2:15 AM 28.4 °F - 24.8 °F 86% 30.37 in 10.0 mi Calm Calm - N/A   Clear
2:36 AM 30.2 °F - 26.6 °F 86% 30.37 in 10.0 mi Calm Calm - N/A   Clear
2:58 AM 28.4 °F - 26.6 °F 93% 30.36 in 10.0 mi Calm Calm - N/A   Clear
3:19 AM 30.2 °F - 24.8 °F 80% 30.36 in 10.0 mi Calm Calm - N/A   Clear
3:40 AM 26.6 °F - 23.0 °F 86% 30.36 in 10.0 mi Calm Calm - N/A   Clear
4:02 AM 28.4 °F - 26.6 °F 93% 30.36 in 10.0 mi Calm Calm - N/A   Clear
4:23 AM 28.4 °F - 26.6 °F 93% 30.36 in 10.0 mi Calm Calm - N/A   Clear
4:44 AM 26.6 °F - 23.0 °F 86% 30.36 in 10.0 mi Calm Calm - N/A   Clear
5:48 AM 24.8 °F - 23.0 °F 93% 30.37 in 10.0 mi Calm Calm - N/A   Clear
6:09 AM 23.0 °F - 23.0 °F 100% 30.37 in 10.0 mi Calm Calm - N/A   Clear
6:31 AM 23.0 °F - 23.0 °F 100% 30.39 in 10.0 mi Calm Calm - N/A   Clear
6:52 AM 23.0 °F - 23.0 °F 100% 30.39 in 10.0 mi Calm Calm - N/A   Clear
7:13 AM 23.0 °F - 23.0 °F 100% 30.40 in 10.0 mi Calm Calm - N/A   Clear
7:35 AM 23.0 °F - 23.0 °F 100% 30.40 in 7.0 mi Calm Calm - N/A   Clear
7:56 AM 23.0 °F - 23.0 °F 100% 30.40 in 5.0 mi Calm Calm - N/A   Clear
8:17 AM 26.6 °F - 26.6 °F 100% 30.40 in 7.0 mi Calm Calm - N/A   Clear
8:38 AM 26.6 °F - 26.6 °F 100% 30.40 in 10.0 mi Calm Calm - N/A   Clear
8:59 AM 28.4 °F - 28.4 °F 100% 30.40 in 10.0 mi Calm Calm - N/A   Clear
9:21 AM 30.2 °F - 28.4 °F 93% 30.40 in 10.0 mi Calm Calm - N/A   Clear
9:42 AM 32.0 °F - 28.4 °F 87% 30.40 in 10.0 mi Calm Calm - N/A   Clear
10:03 AM 32.0 °F - 28.4 °F 87% 30.40 in 10.0 mi Calm Calm - N/A   Clear
10:24 AM 33.8 °F - 28.4 °F 81% 30.40 in 10.0 mi Calm Calm - N/A   Clear
10:46 AM 33.8 °F - 26.6 °F 75% 30.39 in 10.0 mi Calm Calm - N/A   Clear
11:07 AM 35.6 °F - 26.6 °F 70% 30.37 in 10.0 mi Calm Calm - N/A   Clear
11:28 AM 35.6 °F - 26.6 °F 70% 30.36 in 10.0 mi Calm Calm - N/A   Clear
11:49 AM 37.4 °F 33.8 °F 26.6 °F 65% 30.35 in 10.0 mi South 4.6 mph - N/A   Clear
12:11 PM 37.4 °F 34.9 °F 26.6 °F 65% 30.32 in 10.0 mi SSW 3.5 mph - N/A   Clear
12:32 PM 37.4 °F 34.9 °F 26.6 °F 65% 30.31 in 10.0 mi SW 3.5 mph - N/A   Clear
12:53 PM 39.2 °F 35.9 °F 26.6 °F 61% 30.30 in 10.0 mi SW 4.6 mph - N/A   Clear
1:14 PM 41.0 °F 38.0 °F 26.6 °F 57% 30.29 in 10.0 mi WSW 4.6 mph - N/A   Clear
1:36 PM 41.0 °F 38.0 °F 26.6 °F 57% 30.28 in 10.0 mi SSW 4.6 mph - N/A   Clear
1:57 PM 41.0 °F 39.0 °F 26.6 °F 57% 30.27 in 10.0 mi SSW 3.5 mph - N/A   Clear
2:18 PM 42.8 °F 40.1 °F 26.6 °F 53% 30.25 in 10.0 mi SE 4.6 mph - N/A   Clear
2:39 PM 42.8 °F 41.1 °F 26.6 °F 53% 30.25 in 10.0 mi SSW 3.5 mph - N/A   Clear
3:01 PM 42.8 °F - 26.6 °F 53% 30.25 in 10.0 mi Calm Calm - N/A   Clear
3:22 PM 42.8 °F - 26.6 °F 53% 30.24 in 10.0 mi Calm Calm - N/A   Clear
3:43 PM 42.8 °F - 26.6 °F 53% 30.24 in 10.0 mi Calm Calm - N/A   Clear
4:04 PM 41.0 °F - 26.6 °F 57% 30.24 in 10.0 mi Calm Calm - N/A   Clear
4:26 PM 41.0 °F - 26.6 °F 57% 30.25 in 10.0 mi Calm Calm - N/A   Clear
4:47 PM 41.0 °F - 26.6 °F 57% 30.24 in 10.0 mi Calm Calm - N/A   Clear
5:08 PM 39.2 °F - 26.6 °F 61% 30.24 in 10.0 mi Calm Calm - N/A   Clear
5:29 PM 37.4 °F - 26.6 °F 65% 30.24 in 10.0 mi Calm Calm - N/A   Clear
5:50 PM 37.4 °F 34.9 °F 28.4 °F 70% 30.24 in 10.0 mi NNW 3.5 mph - N/A   Clear
6:12 PM 37.4 °F 33.8 °F 26.6 °F 65% 30.23 in 10.0 mi NNW 4.6 mph - N/A   Clear
6:33 PM 35.6 °F 32.8 °F 28.4 °F 75% 30.23 in 10.0 mi NNW 3.5 mph - N/A   Clear
6:54 PM 35.6 °F 31.7 °F 28.4 °F 75% 30.23 in 10.0 mi NW 4.6 mph - N/A   Clear
7:15 PM 35.6 °F 32.8 °F 26.6 °F 70% 30.23 in 10.0 mi NW 3.5 mph - N/A   Clear
7:37 PM 35.6 °F - 26.6 °F 70% 30.23 in 10.0 mi Calm Calm - N/A   Clear
7:58 PM 33.8 °F - 28.4 °F 81% 30.23 in 10.0 mi Calm Calm - N/A   Clear
8:19 PM 33.8 °F 30.8 °F 28.4 °F 81% 30.23 in 10.0 mi North 3.5 mph - N/A   Clear
8:40 PM 32.0 °F - 28.4 °F 87% 30.23 in 10.0 mi Calm Calm - N/A   Clear
9:02 PM 32.0 °F 27.5 °F 28.4 °F 87% 30.23 in 10.0 mi NW 4.6 mph - N/A   Clear
9:23 PM 32.0 °F - 28.4 °F 87% 30.22 in 10.0 mi Calm Calm - N/A   Clear
9:44 PM 32.0 °F - 28.4 °F 87% 30.22 in 10.0 mi Calm Calm - N/A   Clear
10:06 PM 32.0 °F - 28.4 °F 87% 30.22 in 10.0 mi Calm Calm - N/A   Clear
10:27 PM 32.0 °F - 28.4 °F 87% 30.22 in 10.0 mi Calm Calm - N/A   Scattered Clouds
10:48 PM 30.2 °F - 28.4 °F 93% 30.21 in 10.0 mi Calm Calm - N/A   Mostly Cloudy
11:09 PM 32.0 °F - 30.2 °F 93% 30.20 in 10.0 mi Calm Calm - N/A   Mostly Cloudy
11:31 PM 32.0 °F - 28.4 °F 87% 30.20 in 10.0 mi Calm Calm - N/A   Scattered Clouds
11:52 PM 32.0 °F - 28.4 °F 87% 30.19 in 10.0 mi Calm Calm - N/A   Scattered Clouds